Regional Weather Roundup
Issued by NWS

Home | Current Version | Previous Version | Text Only | Print | Product List | Glossary On
Versions: 1 2 3 4 5 6 7 8 9 10 11 12 13 14 15 16 17 18 19 20 21 22 23 24 25 26 27 28 29 30 31 32 33 34 35 36 37 38 39 40 41 42 43 44 45 46 47 48 49 50
580
ASUS43 KLSX 080957
RWRMO

WEATHER SUMMARY FOR MISSOURI
NATIONAL WEATHER SERVICE SPRINGFIELD MO
400 AM CST MON FEB 08 2016

NOTE: "FAIR" INDICATES FEW OR NO CLOUDS BELOW 12,000 FEET WITH NO
       SIGNIFICANT WEATHER AND/OR OBSTRUCTIONS TO VISIBILITY.
       CURRENT SKY AND/OR WEATHER CONDITIONS ARE NOT AVAILABLE FOR
       CHILLICOTHE AND FARMINGTON.

MOZ001>031-035>038-043-044-053-054-081100-
...NORTHERN AND WESTERN MISSOURI...

CITY           SKY/WX    TMP DP  RH WIND       PRES   REMARKS
KANSAS CTY INT FLURRIES  33  22  63 NW16G28   29.97F WCI  23
LEE`S SUMMIT   CLOUDY    34  20  56 NW17G26   29.97F WCI  23
ST JOSEPH      CLOUDY    34  20  56 NW26G43   29.97F WCI  21
CHILLICOTHE      N/A     30  21  69 NW13G24   29.93F WCI  20

$$
MOZ066>068-077>081-088>096-101>105-081100-
...SOUTHWEST MISSOURI...

CITY           SKY/WX    TMP DP  RH WIND       PRES   REMARKS
SPRINGFIELD    CLOUDY    37  22  54 NW20G32   29.96R WCI  27
JOPLIN         PTCLDY    34  21  59 NW14      30.06R WCI  25

$$
MOZ032>034-039>042-045>050-055>058-069>072-081100-
...CENTRAL MISSOURI...

CITY           SKY/WX    TMP DP  RH WIND       PRES   REMARKS
COLUMBIA       NOT AVBL
JEFFERSON CITY FLURRIES  33  27  78 W13       29.89S WCI  24
ROLLA          LGT SNOW  32  27  81 W16G24    29.84F WCI  21
SEDALIA        FLURRIES  32  25  75 NW22G35   29.93R WCI  19

$$
MOZ051-052-059>065-081100-
...EAST CENTRAL MISSOURI...

CITY           SKY/WX    TMP DP  RH WIND       PRES   REMARKS
ST LOUIS INTL  CLOUDY    38  23  55 W24G30    29.78F WCI  27

$$
MOZ072>076-082>087-097>100-106>115-081100-
...SOUTH CENTRAL AND SOUTHEAST MISSOURI...

CITY           SKY/WX    TMP DP  RH WIND       PRES   REMARKS
CAPE GIRARDEAU PTCLDY    36  26  67 NW14      29.83F WCI  27
POPLAR BLUFF   MOCLDY    41  23  48 W14       29.85F
WEST PLAINS    CLOUDY    38  22  52 NW10G20   29.89F

$$



USA.gov is the U.S. government's official web portal to all federal, state and local government web resources and services.